CAL520 ZHCC-ZBLA

Flight info

Callsign CAL520
Flight time N/A
Altitude 34000
Route GUK9W GUKNA V54 DOSKU W56 LEBUN W57 BEKDO W157 VYK G212 TGO W27 IKITI A345 ELPUN ELP02A
Aircraft B738/M-V/N

Departure

Time 2026-04-26 06:06
Airport Zhengzhou Xinzheng International Airport (ZHCC)

Arrival

Time N/A
Airport Hulunbuir Hailar Airport (ZBLA)
Time Latitude Longitude Altitude Speed Heading
2026-04-26 05:40 34.52636 113.83831 506 ft 0 kts 22°
2026-04-26 05:45 34.52625 113.83826 507 ft 2 kts 22°
2026-04-26 05:45 34.52611 113.83819 507 ft 2 kts 22°
2026-04-26 05:45 34.52597 113.83812 507 ft 2 kts 23°
2026-04-26 05:46 34.52583 113.83804 507 ft 2 kts 22°
2026-04-26 05:46 34.52569 113.83798 507 ft 1 kts 33°
2026-04-26 05:46 34.52562 113.83783 507 ft 2 kts 94°
2026-04-26 05:46 34.52564 113.83774 507 ft 1 kts 117°
2026-04-26 05:47 34.52566 113.83769 507 ft 0 kts 112°
2026-04-26 06:01 34.52565 113.83774 506 ft 3 kts 112°
2026-04-26 06:01 34.52551 113.83800 506 ft 8 kts 146°
2026-04-26 06:02 34.52467 113.83781 506 ft 11 kts 253°
2026-04-26 06:02 34.52412 113.83689 506 ft 18 kts 205°
2026-04-26 06:02 34.52304 113.83625 506 ft 14 kts 235°
2026-04-26 06:02 34.52319 113.83512 506 ft 13 kts 292°
2026-04-26 06:03 34.52356 113.83409 506 ft 12 kts 294°
2026-04-26 06:03 34.52388 113.83321 506 ft 10 kts 294°
2026-04-26 06:03 34.52429 113.83193 506 ft 19 kts 290°
2026-04-26 06:03 34.52476 113.83041 507 ft 20 kts 292°
2026-04-26 06:04 34.52533 113.82872 506 ft 22 kts 294°
2026-04-26 06:04 34.52598 113.82687 506 ft 23 kts 292°
2026-04-26 06:04 34.52651 113.82510 506 ft 16 kts 269°
2026-04-26 06:04 34.52622 113.82469 506 ft 0 kts 204°
2026-04-26 06:05 34.52607 113.82461 506 ft 9 kts 204°
2026-04-26 06:05 34.52522 113.82434 506 ft 13 kts 155°
2026-04-26 06:05 34.52490 113.82491 507 ft 0 kts 115°
2026-04-26 06:05 34.52484 113.82506 506 ft 13 kts 114°
2026-04-26 06:06 34.52338 113.82941 507 ft 95 kts 112°
2026-04-26 06:06 34.51999 113.83935 507 ft 160 kts 112°
2026-04-26 06:06 34.51534 113.85360 762 ft 193 kts 111°
2026-04-26 06:06 34.51037 113.86846 1517 ft 197 kts 122°
2026-04-26 06:07 34.50165 113.88229 2003 ft 213 kts 133°
2026-04-26 06:07 34.49157 113.89524 2797 ft 215 kts 137°
2026-04-26 06:07 34.48056 113.90797 3503 ft 221 kts 138°
2026-04-26 06:07 34.46891 113.92106 3973 ft 241 kts 135°
2026-04-26 06:08 34.45719 113.93469 4944 ft 231 kts 134°
2026-04-26 06:08 34.44547 113.94836 5543 ft 241 kts 135°
2026-04-26 06:08 34.43352 113.96201 6414 ft 236 kts 134°
2026-04-26 06:08 34.42369 113.97790 7050 ft 239 kts 112°
2026-04-26 06:09 34.41777 113.99612 7856 ft 234 kts 101°
2026-04-26 06:09 34.41655 114.01556 8484 ft 234 kts 80°
2026-04-26 06:09 34.41991 114.03450 9202 ft 232 kts 71°
2026-04-26 06:09 34.42474 114.05314 9843 ft 235 kts 70°
2026-04-26 06:10 34.42962 114.07227 10502 ft 237 kts 72°
2026-04-26 06:10 34.43415 114.09139 11136 ft 240 kts 73°
2026-04-26 06:10 34.43853 114.11074 11754 ft 242 kts 73°
2026-04-26 06:10 34.44290 114.13071 12351 ft 246 kts 77°
2026-04-26 06:11 34.44210 114.15189 12565 ft 267 kts 109°
2026-04-26 06:11 34.43393 114.17262 12988 ft 279 kts 116°
2026-04-26 06:11 34.42541 114.19489 13042 ft 304 kts 110°
2026-04-26 06:11 34.41809 114.21963 13170 ft 325 kts 107°
2026-04-26 06:12 34.41108 114.24680 13315 ft 345 kts 105°
2026-04-26 06:12 34.40406 114.27497 13754 ft 354 kts 105°
2026-04-26 06:12 34.39685 114.30399 14276 ft 360 kts 105°
2026-04-26 06:12 34.38963 114.33298 14816 ft 365 kts 105°
2026-04-26 06:13 34.38227 114.36252 15362 ft 369 kts 105°
2026-04-26 06:13 34.37481 114.39240 15892 ft 373 kts 105°
2026-04-26 06:13 34.36731 114.42246 16410 ft 377 kts 105°
2026-04-26 06:13 34.35967 114.45312 16906 ft 382 kts 105°
2026-04-26 06:14 34.35201 114.48389 17390 ft 386 kts 105°
2026-04-26 06:14 34.34424 114.51511 17858 ft 391 kts 105°
2026-04-26 06:14 34.33629 114.54707 18318 ft 395 kts 104°
2026-04-26 06:14 34.32835 114.57902 18774 ft 400 kts 104°
2026-04-26 06:15 34.32032 114.61132 19211 ft 404 kts 104°
2026-04-26 06:15 34.31218 114.64415 19643 ft 408 kts 104°
2026-04-26 06:15 34.30448 114.67741 20073 ft 411 kts 100°
2026-04-26 06:15 34.30122 114.71150 20468 ft 412 kts 87°
2026-04-26 06:16 34.30484 114.74593 20883 ft 411 kts 72°
2026-04-26 06:16 34.31522 114.77786 21275 ft 409 kts 57°
2026-04-26 06:16 34.33161 114.80544 21668 ft 405 kts 43°
2026-04-26 06:16 34.35311 114.82720 22059 ft 402 kts 28°
2026-04-26 06:17 34.37815 114.84157 22436 ft 398 kts 13°
2026-04-26 06:17 34.40519 114.84769 22822 ft 394 kts 359°
2026-04-26 06:17 34.43226 114.84527 23195 ft 391 kts 345°
2026-04-26 06:17 34.45787 114.83455 23583 ft 389 kts 332°
2026-04-26 06:18 34.48178 114.81914 23954 ft 390 kts 330°
2026-04-26 06:18 34.50634 114.80485 24334 ft 393 kts 333°
2026-04-26 06:18 34.53139 114.79150 24675 ft 396 kts 334°
2026-04-26 06:18 34.55682 114.77844 25026 ft 399 kts 336°
2026-04-26 06:19 34.58337 114.76859 25387 ft 404 kts 344°
2026-04-26 06:19 34.61151 114.76284 25712 ft 409 kts 349°
2026-04-26 06:19 34.63952 114.75968 26040 ft 412 kts 352°
2026-04-26 06:19 34.66837 114.75857 26344 ft 417 kts 355°
2026-04-26 06:20 34.69763 114.75895 26684 ft 419 kts 356°
2026-04-26 06:20 34.72654 114.76028 26927 ft 423 kts 358°
2026-04-26 06:20 34.75611 114.76221 27236 ft 425 kts 358°
2026-04-26 06:20 34.78560 114.76435 27504 ft 427 kts 358°
2026-04-26 06:21 34.81517 114.76665 27737 ft 430 kts 358°
2026-04-26 06:21 34.84511 114.76909 28035 ft 432 kts 359°
2026-04-26 06:21 34.87521 114.77165 28286 ft 434 kts 359°
2026-04-26 06:21 34.90521 114.77432 28510 ft 437 kts 359°
2026-04-26 06:22 34.93543 114.77707 28864 ft 436 kts 359°
2026-04-26 06:22 34.96566 114.77986 29132 ft 437 kts 358°
2026-04-26 06:22 34.99591 114.78269 29401 ft 438 kts 358°
2026-04-26 06:22 35.02628 114.78557 29749 ft 437 kts 358°
2026-04-26 06:23 35.05677 114.78845 29794 ft 443 kts 357°
2026-04-26 06:23 35.08750 114.79137 29999 ft 445 kts 357°
2026-04-26 06:23 35.11873 114.79436 30201 ft 446 kts 357°
2026-04-26 06:23 35.14984 114.79736 30411 ft 448 kts 357°
2026-04-26 06:24 35.18092 114.80035 30626 ft 449 kts 357°
2026-04-26 06:24 35.21199 114.80336 30905 ft 449 kts 357°
2026-04-26 06:24 35.24308 114.80637 31135 ft 450 kts 357°
2026-04-26 06:24 35.27408 114.80936 31296 ft 452 kts 357°
2026-04-26 06:25 35.30565 114.81243 31607 ft 451 kts 356°
2026-04-26 06:25 35.33688 114.81546 31781 ft 452 kts 356°
2026-04-26 06:25 35.36815 114.81850 31965 ft 454 kts 356°
2026-04-26 06:25 35.39928 114.82153 32250 ft 453 kts 356°
2026-04-26 06:26 35.43062 114.82455 32404 ft 455 kts 356°
2026-04-26 06:26 35.46247 114.82766 32573 ft 457 kts 356°
2026-04-26 06:26 35.49393 114.83072 32829 ft 456 kts 356°
2026-04-26 06:26 35.52516 114.83377 33051 ft 456 kts 356°
2026-04-26 06:27 35.55676 114.83684 33210 ft 458 kts 356°
2026-04-26 06:27 35.58874 114.83996 33358 ft 460 kts 356°
2026-04-26 06:27 35.62037 114.84303 33603 ft 459 kts 356°
2026-04-26 06:27 35.65211 114.84614 33777 ft 460 kts 356°
2026-04-26 06:28 35.68421 114.84926 33845 ft 463 kts 356°
2026-04-26 06:28 35.74843 114.85555 33857 ft 464 kts 356°
2026-04-26 06:29 35.81298 114.86192 33856 ft 462 kts 356°
2026-04-26 06:29 35.87677 114.86817 33855 ft 462 kts 356°
2026-04-26 06:30 35.94047 114.87444 33857 ft 462 kts 356°
2026-04-26 06:30 36.00436 114.88072 33858 ft 462 kts 356°
2026-04-26 06:31 36.06829 114.88705 33859 ft 463 kts 356°
2026-04-26 06:31 36.13227 114.89340 33852 ft 461 kts 356°
2026-04-26 06:32 36.19587 114.89973 33863 ft 460 kts 356°
2026-04-26 06:32 36.25950 114.90604 33885 ft 461 kts 356°
2026-04-26 06:33 36.32318 114.91258 33900 ft 465 kts 359°
2026-04-26 06:33 36.35539 114.92167 33924 ft 478 kts 10°
2026-04-26 06:33 36.38628 114.93565 33915 ft 482 kts 14°
2026-04-26 06:34 36.44828 114.96806 33910 ft 483 kts 16°
2026-04-26 06:34 36.50938 115.00164 33910 ft 485 kts 17°
2026-04-26 06:35 36.57074 115.03610 33913 ft 486 kts 17°
2026-04-26 06:35 36.63209 115.07095 33916 ft 485 kts 17°
2026-04-26 06:36 36.69318 115.10590 33912 ft 486 kts 17°
2026-04-26 06:36 36.75438 115.14108 33915 ft 487 kts 17°
2026-04-26 06:37 36.81543 115.17629 33913 ft 485 kts 17°
2026-04-26 06:37 36.87703 115.21186 33919 ft 488 kts 17°
2026-04-26 06:38 36.93844 115.24743 33921 ft 488 kts 17°
2026-04-26 06:38 36.99950 115.28284 33915 ft 487 kts 17°
2026-04-26 06:39 37.06098 115.31856 33918 ft 490 kts 15°
2026-04-26 06:39 37.12314 115.35474 33919 ft 494 kts 15°
2026-04-26 06:40 37.18535 115.39103 33919 ft 496 kts 15°
2026-04-26 06:40 37.24798 115.42764 33920 ft 496 kts 15°
2026-04-26 06:41 37.30996 115.46395 33922 ft 494 kts 15°
2026-04-26 06:41 37.37201 115.50037 33922 ft 494 kts 15°
2026-04-26 06:42 37.43470 115.53720 33925 ft 497 kts 15°
2026-04-26 06:42 37.49678 115.57375 33923 ft 496 kts 15°
2026-04-26 06:43 37.55931 115.61065 33921 ft 495 kts 15°
2026-04-26 06:43 37.62116 115.64719 33926 ft 493 kts 14°
2026-04-26 06:44 37.68349 115.68402 33909 ft 496 kts 15°
2026-04-26 06:44 37.74610 115.72093 33908 ft 498 kts 15°
2026-04-26 06:45 37.80850 115.75729 33906 ft 495 kts 15°
2026-04-26 06:45 37.87080 115.79346 33913 ft 496 kts 15°
2026-04-26 06:46 37.93330 115.82967 33910 ft 494 kts 14°
2026-04-26 06:46 37.99551 115.86568 33911 ft 494 kts 15°
2026-04-26 06:47 38.05815 115.90196 33913 ft 497 kts 14°
2026-04-26 06:47 38.12061 115.93823 33910 ft 496 kts 15°
2026-04-26 06:48 38.18314 115.97459 33917 ft 495 kts 14°
2026-04-26 06:48 38.24549 116.01089 33918 ft 495 kts 15°
2026-04-26 06:49 38.30814 116.04744 33927 ft 497 kts 14°
2026-04-26 06:49 38.37081 116.08415 33929 ft 495 kts 14°
2026-04-26 06:50 38.43302 116.12059 33935 ft 496 kts 15°
2026-04-26 06:50 38.49596 116.15752 33942 ft 497 kts 14°
2026-04-26 06:51 38.55803 116.19405 33940 ft 494 kts 15°
2026-04-26 06:51 38.65149 116.24914 33943 ft 495 kts 14°
2026-04-26 06:52 38.71424 116.28623 33942 ft 495 kts 14°
2026-04-26 06:52 38.77619 116.32293 33948 ft 495 kts 14°
2026-04-26 06:53 38.83874 116.36015 33948 ft 497 kts 15°
2026-04-26 06:53 38.90147 116.39735 33946 ft 495 kts 14°
2026-04-26 06:54 38.96364 116.43417 33946 ft 493 kts 13°
2026-04-26 06:54 39.02544 116.47076 33951 ft 492 kts 12°
2026-04-26 06:55 39.08757 116.50755 33951 ft 492 kts 12°
2026-04-26 06:55 39.14970 116.54445 33949 ft 491 kts 12°
2026-04-26 06:56 39.21206 116.57830 33951 ft 485 kts
2026-04-26 06:56 39.27482 116.60792 33950 ft 485 kts
2026-04-26 06:57 39.33801 116.63743 33954 ft 483 kts
2026-04-26 06:57 39.40088 116.66669 33933 ft 482 kts
2026-04-26 06:58 39.46403 116.69596 33934 ft 483 kts
2026-04-26 06:58 39.52718 116.72529 33934 ft 484 kts
2026-04-26 06:59 39.59013 116.75456 33932 ft 485 kts
2026-04-26 06:59 39.65352 116.78419 33933 ft 484 kts
2026-04-26 07:00 39.71668 116.81370 33930 ft 483 kts
2026-04-26 07:00 39.77996 116.84333 33922 ft 485 kts
2026-04-26 07:01 39.84312 116.87292 33912 ft 485 kts
2026-04-26 07:01 39.90628 116.90259 33910 ft 486 kts
2026-04-26 07:02 39.96962 116.93241 33908 ft 485 kts
2026-04-26 07:02 40.03265 116.96217 33912 ft 484 kts
2026-04-26 07:03 40.09616 116.99220 33915 ft 485 kts
2026-04-26 07:03 40.15936 117.02217 33913 ft 485 kts
2026-04-26 07:04 40.22295 117.05231 33910 ft 487 kts
2026-04-26 07:04 40.28683 117.08265 33914 ft 489 kts
2026-04-26 07:05 40.35132 117.10498 33394 ft 465 kts 351°
2026-04-26 07:05 40.38234 117.10352 32924 ft 438 kts 338°
2026-04-26 07:05 40.41099 117.09340 32446 ft 414 kts 325°
2026-04-26 07:06 40.43517 117.07586 31977 ft 393 kts 313°
2026-04-26 07:06 40.45457 117.05150 31507 ft 378 kts 300°
2026-04-26 07:06 40.46773 117.02245 31033 ft 369 kts 287°
2026-04-26 07:06 40.47422 116.99040 30558 ft 366 kts 274°
2026-04-26 07:07 40.47375 116.95721 30078 ft 367 kts 261°
2026-04-26 07:07 40.46627 116.92502 29599 ft 374 kts 248°
2026-04-26 07:07 40.45215 116.89602 29115 ft 384 kts 235°
2026-04-26 07:07 40.43221 116.87228 28632 ft 397 kts 222°
2026-04-26 07:08 40.40757 116.85482 28145 ft 410 kts 212°
2026-04-26 07:08 40.38098 116.84074 27642 ft 415 kts 210°
2026-04-26 07:08 40.35373 116.82724 27131 ft 417 kts 209°
2026-04-26 07:08 40.32666 116.81395 26629 ft 420 kts 208°
2026-04-26 07:09 40.29924 116.80051 26124 ft 423 kts 208°
2026-04-26 07:09 40.27151 116.78693 25615 ft 425 kts 208°
2026-04-26 07:09 40.24391 116.77342 25110 ft 427 kts 208°
2026-04-26 07:09 40.21727 116.75766 24604 ft 420 kts 217°
2026-04-26 07:10 40.15624 116.68314 23084 ft 382 kts 239°
2026-04-26 07:11 40.13691 116.62177 22080 ft 361 kts 262°
2026-04-26 07:11 40.13692 116.58933 21584 ft 357 kts 276°
2026-04-26 07:11 40.14408 116.55847 21091 ft 357 kts 290°
2026-04-26 07:11 40.15688 116.53062 20588 ft 359 kts 302°
2026-04-26 07:12 40.17505 116.50789 20090 ft 367 kts 320°
2026-04-26 07:12 40.19857 116.49420 19611 ft 377 kts 340°
2026-04-26 07:12 40.22447 116.48905 19123 ft 382 kts 351°
2026-04-26 07:12 40.25099 116.49181 18624 ft 392 kts 11°
2026-04-26 07:13 40.27602 116.50686 18157 ft 397 kts 30°
2026-04-26 07:13 40.29702 116.53037 17677 ft 399 kts 43°
2026-04-26 07:13 40.31581 116.55666 17170 ft 397 kts 46°
2026-04-26 07:13 40.33373 116.58362 16668 ft 395 kts 48°
2026-04-26 07:14 40.35148 116.61142 16157 ft 392 kts 49°
2026-04-26 07:14 40.36874 116.63924 15649 ft 390 kts 50°
2026-04-26 07:14 40.38549 116.66680 15147 ft 387 kts 50°
2026-04-26 07:14 40.40210 116.69469 14638 ft 384 kts 53°
2026-04-26 07:15 40.41352 116.72596 14153 ft 380 kts 78°
2026-04-26 07:15 40.41419 116.76002 13695 ft 373 kts 103°
2026-04-26 07:15 40.40556 116.79185 13000 ft 365 kts 120°
2026-04-26 07:15 40.39266 116.82004 12094 ft 364 kts 123°
2026-04-26 07:16 40.37976 116.84842 11146 ft 363 kts 129°
2026-04-26 07:16 40.36103 116.86974 10222 ft 355 kts 155°
2026-04-26 07:16 40.33786 116.87785 9318 ft 347 kts 179°
2026-04-26 07:16 40.31387 116.87528 8374 ft 343 kts 192°
2026-04-26 07:17 40.29151 116.86583 7428 ft 340 kts 206°
2026-04-26 07:17 40.27218 116.84908 6496 ft 338 kts 221°
2026-04-26 07:17 40.25545 116.82764 5543 ft 336 kts 226°
2026-04-26 07:17 40.23995 116.80569 5074 ft 318 kts 226°
2026-04-26 07:18 40.22567 116.78500 4998 ft 293 kts 226°
2026-04-26 07:18 40.21232 116.76600 4989 ft 278 kts 226°
2026-04-26 07:18 40.19941 116.74779 4987 ft 264 kts 226°
2026-04-26 07:18 40.18794 116.72993 4977 ft 253 kts 240°
2026-04-26 07:19 40.18472 116.70853 5038 ft 238 kts 276°
2026-04-26 07:19 40.19039 116.68908 4993 ft 220 kts 300°
2026-04-26 07:19 40.20049 116.67545 4973 ft 204 kts 330°
2026-04-26 07:19 40.21367 116.67015 5004 ft 200 kts 351°
2026-04-26 07:20 40.22757 116.66832 4997 ft 200 kts 355°
2026-04-26 07:20 40.24155 116.66714 4990 ft 198 kts 356°
2026-04-26 07:20 40.25536 116.66576 4994 ft 200 kts 355°
2026-04-26 07:20 40.26918 116.66429 4999 ft 197 kts 354°
2026-04-26 07:21 40.28280 116.66318 4994 ft 198 kts 355°
2026-04-26 07:21 40.29665 116.66194 4992 ft 199 kts 355°
2026-04-26 07:21 40.31043 116.66072 4992 ft 199 kts 355°
2026-04-26 07:21 40.32433 116.65935 4993 ft 199 kts 354°
2026-04-26 07:22 40.33815 116.65810 4990 ft 199 kts 354°
2026-04-26 07:22 40.35193 116.65685 4994 ft 200 kts 355°
2026-04-26 07:22 40.36581 116.65551 4990 ft 199 kts 355°
2026-04-26 07:22 40.37970 116.65424 4991 ft 199 kts 355°
2026-04-26 07:23 40.39332 116.65220 4970 ft 196 kts 340°
2026-04-26 07:23 40.40310 116.64210 5003 ft 171 kts 296°
2026-04-26 07:23 40.40545 116.62742 5021 ft 166 kts 258°
2026-04-26 07:23 40.40051 116.61321 5049 ft 177 kts 231°
2026-04-26 07:24 40.39242 116.60089 5007 ft 178 kts 226°
2026-04-26 07:24 40.38448 116.58794 5002 ft 182 kts 231°
2026-04-26 07:24 40.37705 116.57445 4997 ft 182 kts 227°
2026-04-26 07:24 40.36711 116.56441 5006 ft 179 kts 209°
2026-04-26 07:25 40.35616 116.55679 5000 ft 178 kts 204°
2026-04-26 07:25 40.34420 116.55294 5000 ft 178 kts 182°
2026-04-26 07:25 40.33201 116.55482 5003 ft 179 kts 171°
2026-04-26 07:25 40.31960 116.55789 5001 ft 179 kts 172°
2026-04-26 07:26 40.30732 116.56021 5001 ft 179 kts 174°
2026-04-26 07:26 40.29496 116.56218 5002 ft 181 kts 175°
2026-04-26 07:26 40.28258 116.56408 5000 ft 178 kts 174°
2026-04-26 07:26 40.27027 116.56588 5000 ft 177 kts 174°
2026-04-26 07:27 40.25787 116.56800 5000 ft 180 kts 174°
2026-04-26 07:27 40.24519 116.57018 4829 ft 184 kts 174°
2026-04-26 07:27 40.23303 116.57195 4517 ft 170 kts 174°
2026-04-26 07:27 40.22176 116.57368 4169 ft 160 kts 173°
2026-04-26 07:28 40.21109 116.57534 3825 ft 153 kts 174°
2026-04-26 07:28 40.20091 116.57703 3490 ft 147 kts 173°
2026-04-26 07:28 40.19091 116.57849 3150 ft 143 kts 174°
2026-04-26 07:28 40.18101 116.58003 2711 ft 147 kts 174°
2026-04-26 07:29 40.17112 116.58169 2414 ft 138 kts 172°
2026-04-26 07:29 40.16165 116.58345 2121 ft 143 kts 172°
2026-04-26 07:29 40.15218 116.58481 1886 ft 139 kts 174°
2026-04-26 07:29 40.14272 116.58599 1681 ft 140 kts 174°
2026-04-26 07:30 40.13324 116.58707 1520 ft 137 kts 174°
2026-04-26 07:30 40.12396 116.58867 1350 ft 139 kts 171°
2026-04-26 07:30 40.11467 116.59104 1133 ft 140 kts 171°
2026-04-26 07:30 40.10514 116.59235 628 ft 143 kts 174°
2026-04-26 07:31 40.09563 116.59363 321 ft 136 kts 170°
2026-04-26 07:31 40.08619 116.59535 128 ft 136 kts 172°
2026-04-26 07:31 40.07853 116.59653 127 ft 82 kts 173°
2026-04-26 07:31 40.07468 116.59740 127 ft 38 kts 158°
2026-04-26 07:32 40.07349 116.59837 127 ft 7 kts 143°
2026-04-26 07:32 40.07343 116.59844 127 ft 0 kts 143°
2026-04-26 07:32 40.07303 116.59885 127 ft 17 kts 143°
2026-04-26 07:33 40.07225 116.60004 126 ft 16 kts 92°
2026-04-26 07:33 40.07229 116.60068 127 ft 0 kts 84°